Weather History for Douglas Bisbee, AZ

Change the Weather History Date:

Wednesday, September 18, 2013

  Actual Average Record
Temperature  
Mean Temperature 79 °F 74 °F  
Max Temperature 93 °F 89 °F 98 °F (1956)
Min Temperature 64 °F 59 °F 48 °F (1968)
Degree Days  
Heating Degree Days 0 0  
Month to date heating degree days 0 0  
Since 1 July heating degree days 0 0  
Cooling Degree Days 14 9  
Month to date cooling degree days 201 198  
Year to date cooling degree days 1741 1668  
Growing Degree Days 28 (Base 50)    
Moisture  
Dew Point 55 °F    
Average Humidity 53    
Maximum Humidity 84    
Minimum Humidity 21    
Precipitation  
Precipitation 0.00 in 0.05 in 1.63 in (2014)
Month to date precipitation 2.16 0.99  
Year to date precipitation 17.11 10.00  
Snow  
Snow 0.00 in - - ()
Month to date snowfall 0.0  
Snow Depth 0.00 in    
Sea Level Pressure  
Sea Level Pressure 29.70 in    
Wind  
Wind Speed 6 mph (NE)    
Max Wind Speed 15 mph    
Max Gust Speed 18 mph    
Visibility 10 miles    
Events      
T = Trace of Precipitation, MM = Missing Value Source: NWS Daily Summary

Daily Weather History Graph

Daily Weather History Graph

Search for Another Location

Airport:

Trip Planner

Search our weather history database for the weather conditions in past years. The results will help you decide how hot, cold, wet, or windy it might be!

Date:

Astronomy

Sep. 18, 2013 Rise Set
Actual Time 6:04 AM MST 6:19 PM MST
Civil Twilight 5:40 AM MST 6:44 PM MST
Nautical Twilight 5:11 AM MST 7:12 PM MST
Astronomical Twilight 4:43 AM MST 7:41 PM MST
Moon 5:46 PM MST (9/18) 5:11 AM MST (9/18)
Length of Visible Light 13h 03m
Length of Day
12h 15m
Waxing Gibbous, 99% of the Moon is Illuminated
Sep 18
Waxing Gibbous
Sep 19
Full
Sep 26
Last Quarter
Oct 4
New
Oct 11
First Quarter

Hourly Weather History & Observations

Time (MST) Temp. Heat Index Dew Point Humidity Pressure Visibility Wind Dir Wind Speed Gust Speed Precip Events Conditions
12:56 AM 69.1 °F - 59.0 °F 70% 29.75 in 10.0 mi SSE 4.6 mph - N/A   Clear
1:56 AM 70.0 °F - 59.0 °F 68% 29.74 in 10.0 mi SE 3.5 mph - N/A   Clear
2:56 AM 71.1 °F - 59.0 °F 66% 29.71 in 10.0 mi East 6.9 mph - N/A   Clear
3:56 AM 64.0 °F - 59.0 °F 84% 29.73 in 10.0 mi West 3.5 mph - N/A   Clear
4:56 AM 64.9 °F - 59.0 °F 81% 29.73 in 10.0 mi Calm Calm - N/A   Clear
5:56 AM 64.0 °F - 59.0 °F 84% 29.76 in 10.0 mi Calm Calm - N/A   Clear
6:56 AM 70.0 °F - 60.1 °F 71% 29.77 in 10.0 mi ESE 3.5 mph - N/A   Clear
7:56 AM 75.0 °F - 60.1 °F 60% 29.78 in 10.0 mi SSE 8.1 mph - N/A   Clear
8:56 AM 80.1 °F 81.1 °F 61.0 °F 52% 29.78 in 10.0 mi SSE 9.2 mph - N/A   Clear
9:56 AM 82.0 °F 83.0 °F 62.1 °F 51% 29.78 in 10.0 mi South 9.2 mph - N/A   Clear
10:56 AM 86.0 °F 84.9 °F 57.0 °F 37% 29.74 in 10.0 mi Variable 3.5 mph - N/A   Clear
11:56 AM 89.1 °F 87.3 °F 55.9 °F 32% 29.72 in 10.0 mi Variable 3.5 mph - N/A   Clear
12:56 PM 89.1 °F 87.3 °F 55.9 °F 32% 29.71 in 10.0 mi SW 8.1 mph - N/A   Partly Cloudy
1:56 PM 91.0 °F - 52.0 °F 26% 29.67 in 10.0 mi SE 10.4 mph - N/A   Mostly Cloudy
2:56 PM 91.0 °F - 46.0 °F 21% 29.65 in 10.0 mi Variable 3.5 mph - N/A   Clear
3:56 PM 91.9 °F - 48.9 °F 23% 29.64 in 10.0 mi NNW 6.9 mph - N/A   Clear
4:56 PM 91.0 °F - 50.0 °F 24% 29.62 in 10.0 mi WNW 5.8 mph - N/A   Clear
5:56 PM 88.0 °F - 51.1 °F 28% 29.63 in 10.0 mi North 5.8 mph - N/A   Scattered Clouds
6:56 PM 82.9 °F 82.0 °F 55.0 °F 38% 29.64 in 10.0 mi NNE 6.9 mph - N/A   Mostly Cloudy
7:56 PM 81.0 °F 80.8 °F 55.9 °F 42% 29.66 in 10.0 mi NNE 5.8 mph - N/A   Overcast
8:56 PM 84.0 °F - 45.0 °F 25% 29.66 in 10.0 mi NW 11.5 mph - N/A   Overcast
9:56 PM 77.0 °F - 48.0 °F 36% 29.68 in 10.0 mi North 8.1 mph - N/A   Overcast
10:56 PM 77.0 °F - 48.9 °F 37% 29.68 in 10.0 mi North 10.4 mph - N/A   Mostly Cloudy
11:56 PM 73.0 °F - 48.0 °F 41% 29.68 in 10.0 mi NNW 9.2 mph - N/A   Clear